Regional Weather Roundup
Issued by NWS

Home | Current Version | Previous Version | Text Only | Print | Product List | Glossary Off
Versions: 1 2 3 4 5 6 7 8 9 10 11 12 13 14 15 16 17 18 19 20 21 22 23 24 25 26 27 28 29 30 31 32 33 34 35 36 37 38 39 40 41 42 43 44 45 46 47 48 49

000
ASUS45 KBOI 300710
RWRID

IDAHO REGIONAL WEATHER ROUNDUP
NATIONAL WEATHER SERVICE BOISE ID
100 AM MDT SAT MAY 30 2015

NOTE: "FAIR" INDICATES FEW OR NO CLOUDS BELOW 12000 FEET
WITH NO SIGNIFICANT WEATHER AND/OR OBSTRUCTIONS TO VISIBILITY

IDZ012-014-300800-
SOUTHWEST IDAHO


CITY           SKY/WX    TMP DP  RH WIND       PRES   REMARKS
BOISE          MOCLDY    72  41  32 SE10      29.94F
CALDWELL       MOCLDY    63  43  48 E9        29.93S
MOUNTAIN HOME  PTCLDY    65  45  48 E12       29.96F
$$

IDZ016-017-300800-
SOUTHCENTRAL IDAHO


CITY           SKY/WX    TMP DP  RH WIND       PRES   REMARKS
BURLEY         PTCLDY    60  42  51 S7        30.07S
JEROME         MOCLDY    64  45  49 SE5       30.06F
TWIN FALLS     MOCLDY    67  39  35 S16       30.03F
$$

IDZ019>023-300800-
SOUTHEAST IDAHO


CITY           SKY/WX    TMP DP  RH WIND       PRES   REMARKS
IDAHO FALLS    PTCLDY    50  46  86 CALM      30.14S
POCATELLO      CLEAR     58  47  66 NE3       30.12S
REXBURG        PTCLDY    50  44  80 N3        30.15S
$$

IDZ006-010-011-018-031-032-300800-
CENTRAL IDAHO MOUNTAINS


CITY           SKY/WX    TMP DP  RH WIND       PRES   REMARKS
MCCALL         PTCLDY    50  42  74 CALM      30.07S
HAILEY         PTCLDY    52  43  71 NW10      30.18S
STANLEY          N/A     47  35  63 SE6       30.20S
SALMON         CLOUDY    59  46  63 N5        30.06S
CHALLIS        PTCLDY    52  44  74 CALM      30.13R
$$

IDZ002-004-006-007-026-300800-
NORTHERN IDAHO


CITY           SKY/WX    TMP DP  RH WIND       PRES   REMARKS
LEWISTON       CLOUDY    78  47  33 S13       29.89R
LOWELL           N/A     59  53  80 N5        29.94R
COEUR D`ALENE  CLOUDY    57  50  77 N14       29.95F
MULLAN PASS    CLOUDY    56  42  59 SW5       30.09F
$$



USA.gov is the U.S. government's official web portal to all federal, state and local government web resources and services.